This demonstration page uses our WeatherBlox Daily Observations layout. Learn more.

Left ArrowRight Arrow

Hourly Observations for December 28, 2020

Temp ( °F °C ) Dew Point ( °F °C ) Humidity (%) Winds ( mph kmh ) Pressure ( in mb ) Visibility ( mi km ) Precip ( " mm )
12:15 am 00:15 Cloudy 29 -1.5 25 -3.8 85 85 Calm 30.31 1026 10 16.0934 0 0
12:35 am 00:35 Cloudy 29 -1.6 25 -3.7 86 86 Calm 30.31 1026 10 16.0934 0 0
12:55 am 00:55 Cloudy 29 -1.5 25 -3.8 85 85 WNW 3 6 30.32 1027 10 16.0934 0 0
1:15 am 01:15 Mostly Cloudy 29 -1.6 26 -3.6 86 86 NW 3 6 30.32 1027 10 16.0934 0 0
1:35 am 01:35 Cloudy 29 -1.6 25 -3.8 85 85 Calm 30.32 1027 10 16.0934 0 0
1:55 am 01:55 Cloudy 29 -1.6 25 -3.7 86 86 NNW 3 6 30.33 1027 10 16.0934 0 0
2:15 am 02:15 Cloudy 29 -1.5 25 -3.7 85 85 N 3 6 30.33 1027 10 16.0934 0 0
2:35 am 02:35 Cloudy 29 -1.8 25 -3.7 87 87 Calm 30.34 1028 10 16.0934 0 0
2:55 am 02:55 Cloudy 28 -2.3 25 -4 88 88 Calm 30.35 1028 10 16.0934 0 0
3:15 am 03:15 Cloudy 28 -2.3 25 -4 88 88 Calm 30.36 1028 10 16.0934 0 0
3:35 am 03:35 Cloudy 27 -2.6 24 -4.3 88 88 N 5 7 30.36 1028 10 16.0934 0 0
3:55 am 03:55 Partly Cloudy 25 -3.9 22 -5.4 89 89 NNE 5 7 30.37 1029 10 16.0934 0 0
4:15 am 04:15 Clear 24 -4.5 22 -5.7 91 91 NE 3 6 30.38 1029 10 16.0934 0 0
4:35 am 04:35 Clear 23 -5.1 21 -6.3 91 91 NNE 7 11 30.4 1029 10 16.0934 0 0
4:55 am 04:55 Clear 23 -5.2 20 -6.5 91 91 NNE 6 9 30.4 1029 10 16.0934 0 0
5:15 am 05:15 Clear 22 -5.3 20 -6.5 91 91 Calm 30.41 1030 10 16.0934 0 0
5:35 am 05:35 Clear 23 -5 20 -6.5 89 89 Calm 30.4 1030 10 16.0934 0 0
5:55 am 05:55 Clear 21 -6 19 -7.2 91 91 Calm 30.41 1030 10 16.0934 0 0
6:15 am 06:15 Clear 23 -5.2 20 -6.5 91 91 Calm 30.41 1030 10 16.0934 0 0
6:35 am 06:35 Clear 21 -6 19 -7.4 90 90 Calm 30.42 1030 10 16.0934 0 0
6:55 am 06:55 Clear 21 -5.9 19 -7 92 92 Calm 30.44 1031 10 16.0934 0 0
7:15 am 07:15 Clear 23 -5.1 20 -6.4 91 91 SSW 5 7 30.45 1031 10 16.0934 0 0
7:35 am 07:35 Clear 23 -5 20 -6.5 89 89 S 5 7 30.45 1031 10 16.0934 0 0
7:55 am 07:55 Clear 23 -5 20 -6.5 89 89 S 5 7 30.45 1031 10 16.0934 0 0
8:15 am 08:15 Sunny 23 -5 20 -6.4 90 90 SSW 8 13 30.47 1032 10 16.0934 0 0
8:35 am 08:35 Sunny 24 -4.7 21 -6 91 91 SSW 5 7 30.46 1032 10 16.0934 0 0
8:55 am 08:55 Partly Cloudy 25 -4 22 -5.5 89 89 Calm 30.47 1032 10 16.0934 0 0
9:15 am 09:15 Mostly Cloudy 27 -3 23 -4.8 88 88 SSW 3 6 30.47 1032 10 16.0934 0 0
9:35 am 09:35 Cloudy 28 -2.4 24 -4.2 88 88 SSW 3 6 30.46 1031 10 16.0934 0 0
9:55 am 09:55 Cloudy 30 -1.3 26 -3.1 88 88 SSW 5 7 30.45 1031 10 16.0934 0 0
10:15 am 10:15 Partly Cloudy 31 -0.3 28 -2.4 86 86 SSW 8 13 30.45 1031 10 16.0934 0 0
10:35 am 10:35 Sunny 32 0.1 28 -2.1 85 85 SW 3 6 30.46 1031 10 16.0934 0 0
10:55 am 10:55 Sunny 33 0.3 28 -2.4 82 82 Calm 30.46 1032 10 16.0934 0 0
11:15 am 11:15 Sunny 35 1.5 29 -1.9 78 78 W 3 6 30.44 1031 10 16.0934 0 0
11:35 am 11:35 Partly Cloudy 35 1.8 28 -2 76 76 Calm 30.44 1031 10 16.0934 0 0
11:55 am 11:55 Partly Cloudy 37 2.6 29 -1.7 74 74 W 3 6 30.42 1030 10 16.0934 0 0
12:15 pm 12:15 Mostly Cloudy 37 2.5 29 -1.7 74 74 WSW 3 6 30.42 1030 10 16.0934 0 0
12:35 pm 12:35 Cloudy 38 3.3 29 -1.5 71 71 Calm 30.4 1030 10 16.0934 0 0
12:55 pm 12:55 Cloudy 37 3 29 -1.6 72 72 Calm 30.41 1030 10 16.0934 0 0
1:15 pm 13:15 Cloudy 37 3 29 -1.6 72 72 Calm 30.39 1029 10 16.0934 0 0
1:35 pm 13:35 Cloudy 37 3 29 -1.6 72 72 SSE 5 7 30.39 1029 10 16.0934 0 0
1:55 pm 13:55 Cloudy 37 2.8 29 -1.8 72 72 Calm 30.38 1029 10 16.0934 0 0
2:15 pm 14:15 Cloudy 38 3.1 29 -1.7 71 71 S 5 7 30.38 1029 10 16.0934 0 0
2:35 pm 14:35 Cloudy 37 2.9 29 -1.9 71 71 SE 3 6 30.37 1028 10 16.0934 0 0
2:55 pm 14:55 Cloudy 37 2.9 28 -2 71 71 SSE 5 7 30.37 1028 10 16.0934 0 0
3:15 pm 15:15 Cloudy 37 2.8 28 -2 71 71 S 5 7 30.38 1029 10 16.0934 0 0
3:35 pm 15:35 Cloudy 37 2.6 28 -2.3 70 70 SSE 6 9 30.39 1029 10 16.0934 0 0
3:55 pm 15:55 Cloudy 36 2.4 28 -2.5 70 70 SSE 8 13 30.38 1029 10 16.0934 0 0
4:15 pm 16:15 Cloudy 36 2 27 -2.7 71 71 SE 7 11 30.39 1029 10 16.0934 0 0
4:35 pm 16:35 Cloudy 36 2 27 -2.6 72 72 SE 8 13 30.4 1029 10 16.0934 0 0
4:55 pm 16:55 Cloudy 35 1.6 27 -2.7 73 73 SE 8 13 30.4 1029 10 16.0934 0 0
5:15 pm 17:15 Cloudy 34 1.3 27 -2.7 75 75 SE 8 13 30.4 1030 10 16.0934 0 0
5:35 pm 17:35 Cloudy 34 1 27 -2.8 76 76 ESE 8 13 30.41 1030 10 16.0934 0 0
5:55 pm 17:55 Cloudy 32 0.2 26 -3.2 78 78 ESE 10 17 30.42 1030 10 16.0934 0 0
6:15 pm 18:15 Cloudy 32 0 26 -3.2 79 79 ESE 9 15 30.44 1031 10 16.0934 0 0
6:35 pm 18:35 Cloudy 32 0 26 -3.2 79 79 ESE 8 13 30.44 1031 10 16.0934 0 0
6:55 pm 18:55 Cloudy 32 0 26 -3.3 79 79 ESE 10 17 30.44 1031 10 16.0934 0 0
7:15 pm 19:15 Cloudy with Light Snow 32 -0.2 26 -3.3 80 80 ESE 9 15 30.44 1031 7 11.26538 0 0
7:35 pm 19:35 Cloudy with Light Snow 31 -0.7 27 -2.9 85 85 ESE 10 17 30.43 1031 2.5 4.02335 0 0
7:55 pm 19:55 Cloudy with Light Snow 30 -1 28 -2.5 90 90 SE 8 13 30.44 1031 2 3.21868 0 0
8:15 pm 20:15 Cloudy with Light Snow 29 -1.5 28 -2.5 93 93 SE 10 17 30.44 1031 2.5 4.02335 0 0
8:35 pm 20:35 Cloudy with Light Snow 29 -1.6 27 -2.6 93 93 SE 12 19 30.42 1030 2 3.21868 0 0
8:55 pm 20:55 Cloudy with Light Snow 29 -1.8 27 -2.8 93 93 ESE 13 20 30.41 1030 2.5 4.02335 0 0
9:15 pm 21:15 Cloudy with Light Snow 28 -2 27 -2.9 94 94 ESE 10 17 30.42 1030 2.5 4.02335 0 0
9:35 pm 21:35 Cloudy with Light Snow 28 -2 27 -3 93 93 SE 12 19 30.42 1030 4 6.43736 0 0
9:55 pm 21:55 Cloudy with Light Snow 28 -2.1 27 -3 94 94 ESE 13 20 30.4 1029 4 6.43736 0 0
10:15 pm 22:15 Cloudy with Light Snow 28 -2.3 26 -3.2 94 94 ESE 16 26 30.39 1029 1.75 2.816345 0 0
10:35 pm 22:35 Cloudy with Light Snow 28 -2.3 26 -3.2 94 94 ESE 13 20 30.4 1029 1.75 2.816345 0 0
10:55 pm 22:55 Cloudy with Light Snow 28 -2.5 26 -3.2 95 95 SE 14 22 30.4 1029 1.75 2.816345 0 0
11:15 pm 23:15 Cloudy with Light Snow 28 -2.5 26 -3.5 93 93 SE 14 22 30.39 1029 1.25 2.011675 0.01 0.254
11:35 pm 23:35 Cloudy with Light Snow 27 -2.6 26 -3.5 94 94 ESE 13 20 30.37 1028 1.25 2.011675 0.01 0.254
11:55 pm 23:55 Cloudy with Light Snow 27 -2.8 26 -3.6 94 94 SE 14 22 30.36 1028 2 3.21868 0.01 0.254

Powered by AerisWeather